Regional Weather Roundup
Issued by NWS

Home | Current Version | Previous Version | Text Only | Print | Product List | Glossary Off
Versions: 1 2 3 4 5 6 7 8 9 10 11 12 13 14 15 16 17 18 19 20 21 22 23 24 25 26 27

000
ASUS45 KPSR 301510
RWRAZ

ARIZONA HOURLY REGIONAL WEATHER ROUNDUP
NATIONAL WEATHER SERVICE PHOENIX AZ
800 AM MST MON MAY 30 2016

NOTE: FAIR INDICATES FEW OR NO CLOUDS BELOW 12,000 FEET WITH NO
SIGNIFICANT WEATHER AND/OR OBSTRUCTIONS TO VISIBILITY.

AZZ001>003-036-301600-
NORTHWEST ARIZONA

CITY           SKY/WX    TMP DP  RH WIND       PRES   REMARKS
KINGMAN        SUNNY     70  25  18 SW6       30.01S
$$

AZZ004>008-015-016-018-301600-
NORTH CENTRAL ARIZONA

CITY           SKY/WX    TMP DP  RH WIND       PRES   REMARKS
GRAND CANYON   SUNNY     66  20  17 CALM      30.18S
WILLIAMS       SUNNY     64  16  15 E8        30.25S
PRESCOTT       SUNNY     64  17  16 N5        30.10R
FLAGSTAFF      SUNNY     60  25  26 CALM      30.20S
PAYSON         SUNNY     68  23  18 VRB5      30.13S
PAGE           MOSUNNY   71  28  20 CALM      30.04R
$$

AZZ009>014-017-301600-
NORTHEAST ARIZONA

CITY           SKY/WX    TMP DP  RH WIND       PRES   REMARKS
WINSLOW        SUNNY     63  21  20 E7        30.12S
SAINT JOHNS    SUNNY     63  24  22 E3        30.15S
WINDOW ROCK    SUNNY     60  22  23 CALM      30.20S
SHOW LOW       MOSUNNY   64  18  16 SW7       30.19S
$$

AZZ023-301600-
GREATER PHOENIX AREA

CITY           SKY/WX    TMP DP  RH WIND       PRES   REMARKS
PHOENIX        MOSUNNY   75  25  15 S3        29.91R
BUCKEYE        SUNNY     73  36  25 S5        29.94R
GLENDALE       SUNNY     73  25  16 CALM      29.94R
LUKE AFB       SUNNY     77  20  11 N5        29.91R
DEER VALLEY    SUNNY     77  16  10 S5        29.93R
SCOTTSDALE     SUNNY     77  25  14 S5        29.94S
MESA-FALCON    SUNNY    N/A N/A N/A SE6       29.91R
MESA-GATEWAY   MOSUNNY   73  32  21 SE7       29.94R
CHANDLER       SUNNY     77  21  12 SE7       29.93R
$$

AZZ027-028-301600-
SOUTHWEST MARICOPA COUNTY AND PINAL COUNTY

CITY           SKY/WX    TMP DP  RH WIND       PRES   REMARKS
CASA GRANDE    SUNNY     75  25  15 S5        29.95R
GILA BEND      FAIR      78  30  17 S1        29.90R
$$

AZZ503-504-507>509-301600-
SOUTHEAST ARIZONA

CITY           SKY/WX    TMP DP  RH WIND       PRES   REMARKS
TUCSON         SUNNY     76  33  21 CALM      30.00S
DAVIS-MONTHAN  SUNNY     77  39  24 NE1       29.99S
NOGALES        SUNNY     73  50  44 VRB5      30.05S
SIERRA VISTA   SUNNY     72  49  44 E8        30.10S
DOUGLAS        SUNNY     75  50  41 S8        30.08S
SAFFORD        MOSUNNY   77  19  11 E5        30.00S
$$

AZZ020-021-025-026-031-301600-
SOUTHWEST ARIZONA

CITY           SKY/WX    TMP DP  RH WIND       PRES   REMARKS
YUMA           SUNNY     76  47  35 SE8       29.88R
$$

CAZ031-033-041-043-047-048-061-301600-
SOUTHERN CALIFORNIA

CITY           SKY/WX    TMP DP  RH WIND       PRES   REMARKS
DOWNTOWN L.A.  CLOUDY    61  55  81 CALM      30.01S
L.A. AIRPORT   CLOUDY    61  54  77 CALM      30.01S
SAN DIEGO      LGT RAIN  62  59  90 CALM      30.03R
BURBANK        MOSUNNY   58  53  84 CALM      30.01S
ONTARIO        CLOUDY    60  51  72 SW3       30.00F
RIVERSIDE      CLOUDY    61  52  72 CALM      30.01S
PALM SPRINGS   SUNNY     72  52  49 CALM      29.90R
EL CENTRO NAS  SUNNY     74  52  46 NE5       29.89R
IMPERIAL       SUNNY     75  53  46 VRB5      29.87R
BLYTHE         SUNNY     75  43  31 CALM      29.88R
NEEDLES        SUNNY     77  28  16 CALM      29.89R
$$

NVZ020-UTZ003-301600-
SOUTHERN NEVADA-UTAH

CITY           SKY/WX    TMP DP  RH WIND       PRES   REMARKS
LAS VEGAS      MOSUNNY   77  25  14 CALM      29.90S
SALT LAKE CITY MOSUNNY   65  44  46 SE9       30.10S
$$

NMZ009-TXZ055-301600-
NEW MEXICO-WEST TEXAS

CITY           SKY/WX    TMP DP  RH WIND       PRES   REMARKS
ALBUQUERQUE    PTSUNNY   63  43  48 N6        30.15R
EL PASO        MOSUNNY   79  42  26 S13       30.07R
$$


........................KEY........................
SKY/WX - SKY CONDITION/WEATHER
TMP    - TEMPERATURE IN FAHRENHEIT
DP     - DEW POINT IN FAHRENHEIT
RH     - RELATIVE HUMIDITY IN PERCENT
WIND   - DIRECTION AND SPEED IN MILES PER HOUR (MPH)
VRB    - VARIABLE WIND DIRECTION
PRES   - MEAN SEA LEVEL PRESSURE IN INCHES OF MERCURY
         F - FALLING PRESSURE   R - RISING PRESSURE
         S - STEADY PRESSURE
VSB    - VISIBILITY IN MILES
HX     - HEAT INDEX IN FAHRENHEIT
WCI    - WIND CHILL INDEX IN FAHRENHEIT
TC     - TEMPERATURE IN CELSIUS WHICH IS ALSO KNOWN AS
         TEMPERATURE IN CENTIGRADE
AFB    - AIR FORCE BASE
         LUKE AFB IS LUKE AIR FORCE BASE
         DAVIS-MONTHAN IS DAVIS-MONTHAN AIR FORCE BASE
NAS    - NAVAL AIR STATION
         EL CENTRO NAS IS EL CENTRO NAVAL AIR STATION
N/A    - NOT AVAILABLE





USA.gov is the U.S. government's official web portal to all federal, state and local government web resources and services.